Tracking 22881 objects as of 19-Apr-2021
HD Live streaming from Space Station
objects crossing your sky now

STARLINK-1591

Track STARLINK-1591 now!
10-day predictions
STARLINK-1591 is classified as:


NORAD ID: 46045
Int'l Code: 2020-055U
Perigee: 553.5 km
Apogee: 555.2 km
Inclination: 53.1 °
Period: 95.6 minutes
Semi major axis: 6925 km
RCS: Unknown
Launch date: August 7, 2020
Source: United States (US)
Launch site: AIR FORCE EASTERN TEST RANGE (AFETR)
aabbcc
Your satellite tracking list
Your tracking list is empty




NASA's NSSDC Master Catalog

Two Line Element Set (TLE):
1 46045U 20055U   21109.32257151  .00000184  00000-0  31234-4 0  9990
2 46045  53.0558 221.4401 0001250 133.5967 226.5126 15.06389346 39284
Source of the keplerian elements: AFSPC